| time (UTC) | temp F | wind direction | speed MPH | gust MPH | rain 1hr in | rain 24hr in | rain mn in | humidity % | barometer mb |
| 20260903175821 | 98 | 303 | 1.0 | 6.0 | 0.00 | 0.00 | 0.00 | 38 | 1013.6 |
| 20260903174818 | 99 | 303 | 0.0 | 5.0 | 0.00 | 0.00 | 0.00 | 36 | 1013.7 |
| 20260903173830 | 98 | 303 | 1.0 | 5.0 | 0.00 | 0.00 | 0.00 | 39 | 1013.8 |
| 20260903172824 | 96 | 303 | 2.0 | 5.0 | 0.00 | 0.00 | 0.00 | 39 | 1013.9 |
| 20260903171817 | 97 | 303 | 2.0 | 5.0 | 0.00 | 0.00 | 0.00 | 39 | 1013.8 |
| 20260903170813 | 98 | 303 | 2.0 | 5.0 | 0.00 | 0.00 | 0.00 | 39 | 1013.9 |
| 20260903165824 | 97 | 303 | 1.0 | 4.0 | 0.00 | 0.00 | 0.00 | 40 | 1013.9 |
| 20260903164818 | 94 | 303 | 1.0 | 9.0 | 0.00 | 0.00 | 0.00 | 43 | 1013.9 |
| 20260903163832 | 95 | 303 | 2.0 | 6.0 | 0.00 | 0.00 | 0.00 | 42 | 1014.0 |
| 20260903162824 | 95 | 303 | 2.0 | 5.0 | 0.00 | 0.00 | 0.00 | 43 | 1014.0 |
| 20260903161819 | 94 | 303 | 0.0 | 3.0 | 0.00 | 0.00 | 0.00 | 45 | 1014.0 |
| 20260903160852 | 94 | 303 | 1.0 | 3.0 | 0.00 | 0.00 | 0.00 | 45 | 1014.1 |
| 20260903155822 | 93 | 303 | 1.0 | 3.0 | 0.00 | 0.00 | 0.00 | 46 | 1014.1 |
| 20260903154817 | 92 | 303 | 0.0 | 3.0 | 0.00 | 0.00 | 0.00 | 49 | 1014.1 |
| 20260903153832 | 91 | 303 | 1.0 | 3.0 | 0.00 | 0.00 | 0.00 | 49 | 1014.1 |
| 20260903152825 | 90 | 303 | 1.0 | 3.0 | 0.00 | 0.00 | 0.00 | 51 | 1014.2 |
| 20260903151822 | 90 | 303 | 2.0 | 3.0 | 0.00 | 0.00 | 0.00 | 53 | 1014.2 |
| 20260903150815 | 89 | 303 | 1.0 | 2.0 | 0.00 | 0.00 | 0.00 | 55 | 1014.1 |
| 20260903145828 | 88 | 303 | 1.0 | 3.0 | 0.00 | 0.00 | 0.00 | 56 | 1014.1 |
| 20260903144843 | 87 | 303 | 1.0 | 3.0 | 0.00 | 0.00 | 0.00 | 57 | 1014.3 |
| 20260903143815 | 87 | 303 | 0.0 | 1.0 | 0.00 | 0.00 | 0.00 | 57 | 1014.2 |
| 20260903142828 | 87 | 303 | 0.0 | 1.0 | 0.00 | 0.00 | 0.00 | 58 | 1014.2 |
| 20260903141824 | 86 | 303 | 0.0 | 2.0 | 0.00 | 0.00 | 0.00 | 60 | 1014.2 |
| 20260903140818 | 85 | 303 | 0.0 | 1.0 | 0.00 | 0.00 | 0.00 | 63 | 1014.1 |
| 20260903135831 | 83 | 303 | 0.0 | 0.0 | 0.00 | 0.00 | 0.00 | 65 | 1013.9 |
| 20260903134826 | 83 | 303 | 0.0 | 1.0 | 0.00 | 0.00 | 0.00 | 65 | 1013.8 |
| 20260903133823 | 82 | 303 | 1.0 | 2.0 | 0.00 | 0.00 | 0.00 | 65 | 1013.7 |
| 20260903132816 | 82 | 303 | 0.0 | 0.0 | 0.00 | 0.00 | 0.00 | 64 | 1013.4 |
| 20260903131828 | 82 | 303 | 0.0 | 1.0 | 0.00 | 0.00 | 0.00 | 64 | 1013.3 |
| 20260903130821 | 82 | 303 | 0.0 | 0.0 | 0.00 | 0.00 | 0.00 | 63 | 1013.3 |
| 20260903125853 | 82 | 303 | 0.0 | 1.0 | 0.00 | 0.00 | 0.00 | 62 | 1013.2 |
| 20260903124844 | 83 | 303 | 0.0 | 2.0 | 0.00 | 0.00 | 0.00 | 61 | 1013.1 |
| 20260903123819 | 83 | 303 | 0.0 | 2.0 | 0.00 | 0.00 | 0.00 | 60 | 1013.0 |
| 20260903122835 | 83 | 303 | 0.0 | 1.0 | 0.00 | 0.00 | 0.00 | 58 | 1012.9 |
| 20260903121826 | 83 | 303 | 0.0 | 0.0 | 0.00 | 0.00 | 0.00 | 56 | 1012.8 |
| 20260903120840 | 83 | 303 | 0.0 | 0.0 | 0.00 | 0.00 | 0.00 | 55 | 1012.7 |
| 20260903115832 | 83 | 303 | 0.0 | 2.0 | 0.00 | 0.00 | 0.00 | 55 | 1012.7 |
| 20260903114828 | 83 | 303 | 0.0 | 1.0 | 0.00 | 0.00 | 0.00 | 54 | 1012.6 |
| 20260903113821 | 82 | 303 | 0.0 | 0.0 | 0.00 | 0.00 | 0.00 | 53 | 1012.5 |
| 20260903112853 | 83 | 303 | 0.0 | 0.0 | 0.00 | 0.00 | 0.00 | 54 | 1012.4 |
| 20260903111824 | 82 | 303 | 0.0 | 2.0 | 0.00 | 0.00 | 0.00 | 55 | 1012.4 |
| 20260903110816 | 82 | 303 | 1.0 | 3.0 | 0.00 | 0.00 | 0.00 | 56 | 1012.4 |
| 20260903105813 | 82 | 303 | 0.0 | 1.0 | 0.00 | 0.00 | 0.00 | 57 | 1012.4 |
| 20260903104827 | 82 | 303 | 0.0 | 0.0 | 0.00 | 0.00 | 0.00 | 58 | 1012.4 |
| 20260903103821 | 82 | 303 | 0.0 | 0.0 | 0.00 | 0.00 | 0.00 | 57 | 1012.3 |
| 20260903102814 | 83 | 303 | 0.0 | 0.0 | 0.00 | 0.00 | 0.00 | 57 | 1012.3 |
| 20260903101826 | 83 | 303 | 0.0 | 1.0 | 0.00 | 0.00 | 0.00 | 57 | 1012.2 |
| 20260903100825 | 84 | 303 | 0.0 | 0.0 | 0.00 | 0.00 | 0.00 | 57 | 1012.3 |
| 20260903095817 | 84 | 303 | 0.0 | 0.0 | 0.00 | 0.00 | 0.00 | 56 | 1012.4 |
| 20260903094831 | 84 | 303 | 0.0 | 1.0 | 0.00 | 0.00 | 0.00 | 55 | 1012.3 |
| 20260903093823 | 84 | 303 | 0.0 | 2.0 | 0.00 | 0.00 | 0.00 | 55 | 1012.4 |
| 20260903092818 | 84 | 303 | 0.0 | 1.0 | 0.00 | 0.00 | 0.00 | 55 | 1012.4 |
| 20260903091814 | 85 | 303 | 0.0 | 0.0 | 0.00 | 0.00 | 0.00 | 54 | 1012.3 |
| 20260903090827 | 85 | 303 | 0.0 | 0.0 | 0.00 | 0.00 | 0.00 | 54 | 1012.2 |
| 20260903085821 | 85 | 303 | 0.0 | 0.0 | 0.00 | 0.00 | 0.00 | 54 | 1012.2 |
| 20260903084815 | 85 | 303 | 0.0 | 1.0 | 0.00 | 0.00 | 0.00 | 53 | 1012.1 |
| 20260903083825 | 86 | 303 | 0.0 | 0.0 | 0.00 | 0.00 | 0.00 | 53 | 1012.1 |
| 20260903082822 | 86 | 303 | 0.0 | 0.0 | 0.00 | 0.00 | 0.00 | 51 | 1012.1 |
| 20260903081816 | 87 | 303 | 0.0 | 0.0 | 0.00 | 0.00 | 0.00 | 50 | 1012.2 |
| 20260903080828 | 88 | 303 | 0.0 | 1.0 | 0.00 | 0.00 | 0.00 | 49 | 1012.2 |
| 20260903075820 | 88 | 303 | 0.0 | 1.0 | 0.00 | 0.00 | 0.00 | 49 | 1012.2 |
| 20260903074814 | 89 | 303 | 0.0 | 1.0 | 0.00 | 0.00 | 0.00 | 47 | 1012.3 |
| 20260903073831 | 89 | 303 | 0.0 | 3.0 | 0.00 | 0.00 | 0.00 | 47 | 1012.2 |
| 20260903072825 | 89 | 303 | 1.0 | 3.0 | 0.00 | 0.00 | 0.00 | 47 | 1012.2 |
| 20260903071838 | 90 | 303 | 0.0 | 2.0 | 0.00 | 0.00 | 0.00 | 46 | 1012.2 |
| 20260903070829 | 90 | 303 | 1.0 | 2.0 | 0.00 | 0.00 | 0.00 | 45 | 1012.2 |
| 20260903065843 | 90 | 303 | 0.0 | 1.0 | 0.00 | 0.00 | 0.00 | 41 | 1012.2 |
| 20260903064816 | 91 | 303 | 0.0 | 0.0 | 0.00 | 0.00 | 0.00 | 34 | 1012.1 |
| 20260903063814 | 92 | 303 | 0.0 | 0.0 | 0.00 | 0.00 | 0.00 | 32 | 1012.0 |
| 20260903062826 | 92 | 303 | 0.0 | 2.0 | 0.00 | 0.00 | 0.00 | 31 | 1011.9 |
| 20260903061821 | 92 | 303 | 1.0 | 2.0 | 0.00 | 0.00 | 0.00 | 33 | 1011.8 |
| 20260903060813 | 92 | 303 | 0.0 | 3.0 | 0.00 | 0.00 | 0.00 | 39 | 1011.9 |
| 20260903055825 | 92 | 303 | 0.0 | 1.0 | 0.00 | 0.00 | 0.00 | 41 | 1011.9 |
| 20260903054821 | 92 | 303 | 0.0 | 0.0 | 0.00 | 0.00 | 0.00 | 40 | 1011.9 |
| 20260903053833 | 92 | 303 | 0.0 | 1.0 | 0.00 | 0.00 | 0.00 | 40 | 1011.8 |
| 20260903052825 | 92 | 303 | 0.0 | 1.0 | 0.00 | 0.00 | 0.00 | 40 | 1011.9 |
| 20260903051817 | 92 | 303 | 0.0 | 1.0 | 0.00 | 0.00 | 0.00 | 40 | 1011.8 |
| 20260903050829 | 93 | 303 | 0.0 | 0.0 | 0.00 | 0.00 | 0.00 | 40 | 1011.8 |
| 20260903045846 | 94 | 303 | 0.0 | 0.0 | 0.00 | 0.00 | 0.00 | 39 | 1011.8 |
| 20260903044818 | 94 | 303 | 0.0 | 0.0 | 0.00 | 0.00 | 0.00 | 38 | 1011.8 |
| 20260903043812 | 94 | 303 | 0.0 | 2.0 | 0.00 | 0.00 | 0.00 | 37 | 1011.7 |
| 20260903042826 | 95 | 303 | 0.0 | 3.0 | 0.00 | 0.00 | 0.00 | 37 | 1011.8 |
| 20260903041838 | 95 | 303 | 0.0 | 2.0 | 0.00 | 0.00 | 0.00 | 36 | 1011.8 |
| 20260903040814 | 95 | 303 | 0.0 | 2.0 | 0.00 | 0.00 | 0.00 | 35 | 1011.8 |
| 20260903035827 | 96 | 303 | 0.0 | 3.0 | 0.00 | 0.00 | 0.00 | 34 | 1011.6 |
| 20260903034819 | 96 | 303 | 1.0 | 3.0 | 0.00 | 0.00 | 0.00 | 34 | 1011.4 |
| 20260903033831 | 96 | 303 | 1.0 | 3.0 | 0.00 | 0.00 | 0.00 | 33 | 1011.4 |
| 20260903032825 | 96 | 303 | 1.0 | 3.0 | 0.00 | 0.00 | 0.00 | 33 | 1011.3 |
| 20260903031818 | 96 | 303 | 1.0 | 4.0 | 0.00 | 0.00 | 0.00 | 33 | 1011.2 |
| 20260903030814 | 97 | 303 | 2.0 | 6.0 | 0.00 | 0.00 | 0.00 | 33 | 1011.1 |
| 20260903025847 | 97 | 303 | 1.0 | 4.0 | 0.00 | 0.00 | 0.00 | 33 | 1010.9 |
| 20260903024839 | 97 | 303 | 1.0 | 5.0 | 0.00 | 0.00 | 0.00 | 32 | 1010.9 |
| 20260903023830 | 97 | 303 | 1.0 | 6.0 | 0.00 | 0.00 | 0.00 | 32 | 1010.9 |
| 20260903022823 | 97 | 303 | 2.0 | 6.0 | 0.00 | 0.00 | 0.00 | 32 | 1010.8 |
| 20260903021823 | 98 | 303 | 2.0 | 5.0 | 0.00 | 0.00 | 0.00 | 32 | 1010.7 |
| 20260903020815 | 98 | 303 | 1.0 | 5.0 | 0.00 | 0.00 | 0.00 | 32 | 1010.5 |
| 20260903015847 | 98 | 303 | 2.0 | 5.0 | 0.00 | 0.00 | 0.00 | 32 | 1010.5 |
| 20260903014819 | 99 | 303 | 2.0 | 5.0 | 0.00 | 0.00 | 0.00 | 31 | 1010.5 |
| 20260903013830 | 99 | 303 | 2.0 | 5.0 | 0.00 | 0.00 | 0.00 | 30 | 1010.3 |
| 20260903012823 | 100 | 303 | 1.0 | 5.0 | 0.00 | 0.00 | 0.00 | 29 | 1010.3 |
| 20260903011819 | 101 | 303 | 1.0 | 5.0 | 0.00 | 0.00 | 0.00 | 28 | 1010.2 |
| 20260903010831 | 102 | 303 | 1.0 | 5.0 | 0.00 | 0.00 | 0.00 | 28 | 1010.3 |
| 20260903005822 | 103 | 303 | 1.0 | 8.0 | 0.00 | 0.00 | 0.00 | 27 | 1010.3 |
| 20260903004814 | 103 | 303 | 2.0 | 6.0 | 0.00 | 0.00 | 0.00 | 27 | 1010.3 |
| 20260903003812 | 103 | 303 | 1.0 | 4.0 | 0.00 | 0.00 | 0.00 | 28 | 1010.2 |
| 20260903002824 | 103 | 303 | 1.0 | 3.0 | 0.00 | 0.00 | 0.00 | 27 | 1010.3 |
| 20260903001817 | 102 | 303 | 2.0 | 8.0 | 0.00 | 0.00 | 0.00 | 28 | 1010.4 |
| 20260903000830 | 104 | 303 | 1.0 | 4.0 | 0.00 | 0.00 | 0.00 | 26 | 1010.4 |
| 20260902235821 | 104 | 303 | 1.0 | 4.0 | 0.00 | 0.00 | 0.00 | 26 | 1010.4 |
| 20260902234814 | 103 | 303 | 1.0 | 5.0 | 0.00 | 0.00 | 0.00 | 26 | 1010.5 |
| 20260902233827 | 104 | 303 | 1.0 | 3.0 | 0.00 | 0.00 | 0.00 | 27 | 1010.6 |
| 20260902232821 | 103 | 303 | 1.0 | 5.0 | 0.00 | 0.00 | 0.00 | 27 | 1010.7 |
| 20260902231813 | 103 | 303 | 2.0 | 8.0 | 0.00 | 0.00 | 0.00 | 26 | 1010.9 |
| 20260902230824 | 105 | 303 | 1.0 | 5.0 | 0.00 | 0.00 | 0.00 | 25 | 1010.9 |
| 20260902225817 | 106 | 303 | 2.0 | 6.0 | 0.00 | 0.00 | 0.00 | 25 | 1011.1 |
| 20260902224815 | 106 | 303 | 2.0 | 9.0 | 0.00 | 0.00 | 0.00 | 25 | 1011.1 |
| 20260902223827 | 105 | 303 | 4.0 | 10.0 | 0.00 | 0.00 | 0.00 | 25 | 1011.3 |
| 20260902222840 | 106 | 303 | 2.0 | 6.0 | 0.00 | 0.00 | 0.00 | 25 | 1011.5 |
| 20260902221851 | 105 | 303 | 1.0 | 6.0 | 0.00 | 0.00 | 0.00 | 27 | 1011.6 |
| 20260902220844 | 105 | 303 | 2.0 | 5.0 | 0.00 | 0.00 | 0.00 | 25 | 1011.8 |
| 20260902215813 | 104 | 303 | 3.0 | 6.0 | 0.00 | 0.00 | 0.00 | 25 | 1011.8 |
| 20260902214830 | 105 | 303 | 2.0 | 5.0 | 0.00 | 0.00 | 0.00 | 27 | 1011.9 |
| 20260902213824 | 105 | 303 | 1.0 | 8.0 | 0.00 | 0.00 | 0.00 | 27 | 1012.1 |
| 20260902212816 | 104 | 303 | 2.0 | 5.0 | 0.00 | 0.00 | 0.00 | 27 | 1012.2 |
| 20260902211827 | 103 | 303 | 4.0 | 12.0 | 0.00 | 0.00 | 0.00 | 26 | 1012.4 |
| 20260902210820 | 104 | 303 | 2.0 | 4.0 | 0.00 | 0.00 | 0.00 | 27 | 1012.4 |
| 20260902205816 | 105 | 303 | 2.0 | 5.0 | 0.00 | 0.00 | 0.00 | 28 | 1012.7 |
| 20260902204828 | 104 | 303 | 1.0 | 6.0 | 0.00 | 0.00 | 0.00 | 28 | 1012.9 |
| 20260902203820 | 102 | 303 | 2.0 | 8.0 | 0.00 | 0.00 | 0.00 | 30 | 1013.0 |
| 20260902202835 | 102 | 303 | 1.0 | 6.0 | 0.00 | 0.00 | 0.00 | 30 | 1013.2 |
| 20260902201847 | 103 | 303 | 4.0 | 9.0 | 0.00 | 0.00 | 0.00 | 28 | 1013.4 |
| 20260902200818 | 102 | 303 | 2.0 | 6.0 | 0.00 | 0.00 | 0.00 | 29 | 1013.6 |
| 20260902195815 | 104 | 303 | 2.0 | 6.0 | 0.00 | 0.00 | 0.00 | 28 | 1013.8 |
| 20260902194849 | 102 | 303 | 1.0 | 5.0 | 0.00 | 0.00 | 0.00 | 30 | 1014.0 |
| 20260902193842 | 103 | 303 | 2.0 | 4.0 | 0.00 | 0.00 | 0.00 | 29 | 1014.0 |
| 20260902192814 | 103 | 303 | 2.0 | 5.0 | 0.00 | 0.00 | 0.00 | 29 | 1014.2 |
| 20260902191849 | 102 | 303 | 2.0 | 6.0 | 0.00 | 0.00 | 0.00 | 29 | 1014.3 |
| 20260902190821 | 102 | 303 | 3.0 | 5.0 | 0.00 | 0.00 | 0.00 | 29 | 1014.5 |
| 20260902185816 | 100 | 303 | 1.0 | 5.0 | 0.00 | 0.00 | 0.00 | 31 | 1014.6 |
| 20260902184828 | 99 | 303 | 3.0 | 8.0 | 0.00 | 0.00 | 0.00 | 32 | 1014.8 |
| 20260902183842 | 99 | 303 | 4.0 | 8.0 | 0.00 | 0.00 | 0.00 | 31 | 1014.9 |
| 20260902182813 | 100 | 303 | 1.0 | 4.0 | 0.00 | 0.00 | 0.00 | 35 | 1015.0 |
| 20260902181845 | 99 | 303 | 3.0 | 5.0 | 0.00 | 0.00 | 0.00 | 32 | 1015.2 |
| 20260902180835 | 98 | 303 | 2.0 | 6.0 | 0.00 | 0.00 | 0.00 | 35 | 1015.2 |